Starlink 31147

operational
NORAD ID: 58681 Int'l Des: 2023-211 Owner: SPXS Country: US Constellation: starlink
LEOCIRCULAR

Starlink 31147について

説明を読み込み中...

リアルタイム位置

3D地球を読み込み中...

次回通過

高度履歴

Altitude vs Time

uPlot chart will show altitude changes over time

軌道要素

1 58681U 23211Q 25354.83781309 .00001951 00000-0 80399-4 0 9994
2 58681 43.0013 170.7272 0001470 267.7220 92.3464 15.27575341110409
Epoch: Dec 20, 2025 • Age: 10 hours

現在のステータス

高度 491.3 km
速度 7.62 km/s
衛星直下点 -32.65°S, 156.71°W
打ち上げ日 Dec 29, 2023
運用期間 1.9 years
タイプ internet

技術仕様

分類 Payload
質量 730.00 kg
乾燥質量 700.00 kg
総質量 730.00 kg
長さ 0.30 m
直径 4.10 m
スパン 29.00 m
形状 Box + pan
製造者 SPXS
バスタイプ Starlink V2M
フェーズステータス In Orbit
所有者/国 SPXS/US

大規模コンステレーション

Loading constellations...